(109935) = 2001 SC39

Discovered at Socorro on 2001-09-16 by LINEAR.

Orbit

Orbit type: Main Belt

Note: WebGL enabled browser required.

epoch2023-09-13.0
epoch JD2460200.5
perihelion date2018-04-09.19518
perihelion JD2458217.69518
argument of perihelion (°)330.02391
ascending node (°)28.63504
inclination (°)12.16248
eccentricity0.2076341
perihelion distance (AU)2.4787699
Tisserand w.r.t. Jupiter3.1
ΔV w.r.t. Earth (km/sec)10.6
semimajor axis (AU)3.1283145
mean anomaly (°)353.19796
mean daily motion (°/day)0.17813050
aphelion distance (AU)3.778
period (years)5.53
P-vector [x]0.99435162
P-vector [y]0.02943108
P-vector [z]-0.10197382
Q-vector [x]0.03272137
Q-vector [y]0.82897845
Q-vector [z]0.55832253
absolute magnitude14.58
phase slope0.15
uncertainty0
referenceMPEC 2024-A48
observations used1085
oppositions19
arc length (days)11192
first opposition used1993
last opposition used2023
residual rms (arc-secs)0.62
perturbers coarse indicatorM-v
perturbers precise indicator003Ek
first observation date used1993-04-17.0
last observation date used2023-12-08.0
computer nameMPCLINUX
JD of orbit computation2456731.459118
perihelion JD uncertainty (days)6.7018E-05
argument of perihelion uncertainty (°)2.5678E-05
ascending node uncertainty (°)2.2015E-05
inclination uncertainty (°)6.2213E-06
eccentricity uncertainty 6.4729E-08
perihelion distance uncertainty (AU)2.0587E-07
Minimum Orbit Intersection Distances (in AU)
for orbit epoch: 2460200.5, reference: E2024-A48
Mercury2.10998
Venus1.75329
Earth1.48393
Mars1.08762
Jupiter1.7022
Saturn5.69025
Uranus14.7065
Neptune26.8673

Observations

1109 total observations over interval: 1993 04 17.13261 – 2023 12 08.112985
These data are available for download (format description).

Date (UT) J2000 RA J2000 Dec Magn Location Ref
1993 04 17.13261 11 45 11.16 +09 49 05.2 20.9 V 691 – Steward Observatory, Kitt Peak-Spacewatch MPS 78094
1993 04 17.15454 11 45 10.40 +09 49 05.9 21.0 V 691 – Steward Observatory, Kitt Peak-Spacewatch MPS 78094
1993 04 17.17620 11 45 09.61 +09 49 07.7 20.3 V 691 – Steward Observatory, Kitt Peak-Spacewatch MPS 78094
2001 08 05.46542 01 43 06.57 +03 13 49.6 19.1   644 – Palomar Mountain/NEAT MPS 38129
2001 08 05.47614 01 43 06.90 +03 13 52.5 19.3   644 – Palomar Mountain/NEAT MPS 38129
2001 08 05.48681 01 43 07.20 +03 13 55.4 19.0   644 – Palomar Mountain/NEAT MPS 38129
2001 09 02.37154 01 48 06.31 +04 41 24.2 18.0   644 – Palomar Mountain/NEAT MPS 38129
2001 09 02.39258 01 48 06.04 +04 41 26.7 19.0   644 – Palomar Mountain/NEAT MPS 38129
2001 09 02.41694 01 48 05.74 +04 41 29.5 17.9   644 – Palomar Mountain/NEAT MPS 38129
2001 09 16.33579 01 42 54.91 +04 59 53.7 19.2   644 – Palomar Mountain/NEAT MPS 38129
2001 09 16.35702 01 42 54.19 +04 59 55.2 20.0   644 – Palomar Mountain/NEAT MPS 38129
2001 09 16.37816 01 42 53.45 +04 59 55.5 18.9   644 – Palomar Mountain/NEAT MPS 38129
2001 09 16.38557 01 42 52.95 +04 59 56.1 18.7   704 – Lincoln Laboratory ETS, New Mexico MPS 36530
2001 09 16.39992 01 42 52.44 +04 59 57.7 19.1   704 – Lincoln Laboratory ETS, New Mexico MPS 36530
2001 09 16.41434 01 42 51.94 +04 59 58.4 19.0   704 – Lincoln Laboratory ETS, New Mexico MPS 36530
2001 09 16.42880 01 42 51.43 +04 59 59.1 18.7   704 – Lincoln Laboratory ETS, New Mexico MPS 36530
2001 09 19.32932 01 41 09.13 +05 02 01.7 18.2   704 – Lincoln Laboratory ETS, New Mexico MPS 36530
2001 09 19.34345 01 41 08.59 +05 02 02.0 18.2   704 – Lincoln Laboratory ETS, New Mexico MPS 36530
2001 09 19.35759 01 41 08.01 +05 02 02.1 18.2   704 – Lincoln Laboratory ETS, New Mexico MPS 36530
2001 09 19.37173 01 41 07.45 +05 02 02.8 18.4   704 – Lincoln Laboratory ETS, New Mexico MPS 36530
2001 09 19.38587 01 41 06.91 +05 02 03.2 18.1   704 – Lincoln Laboratory ETS, New Mexico MPS 36530
2001 09 21.40545 01 39 48.42 +05 03 12.3 17.1   704 – Lincoln Laboratory ETS, New Mexico MPS 36530
2001 09 21.41968 01 39 47.82 +05 03 12.7 17.2   704 – Lincoln Laboratory ETS, New Mexico MPS 36530
2001 09 21.43393 01 39 47.22 +05 03 13.1 17.3   704 – Lincoln Laboratory ETS, New Mexico MPS 36530
2001 09 21.44819 01 39 46.61 +05 03 13.4 18.1   704 – Lincoln Laboratory ETS, New Mexico MPS 36530
2001 09 21.46245 01 39 46.03 +05 03 13.7 17.7   704 – Lincoln Laboratory ETS, New Mexico MPS 36530
2001 09 26.33558 01 36 15.87 +05 05 09.0 18.3   704 – Lincoln Laboratory ETS, New Mexico MPS 49453
2001 09 26.35027 01 36 15.23 +05 05 10.0 18.8   704 – Lincoln Laboratory ETS, New Mexico MPS 49453
2001 09 26.36485 01 36 14.44 +05 05 10.6 19.0   704 – Lincoln Laboratory ETS, New Mexico MPS 49453
2001 09 26.37943 01 36 13.75 +05 05 10.3 18.5   704 – Lincoln Laboratory ETS, New Mexico MPS 49453
2001 09 26.39404 01 36 13.02 +05 05 10.9 18.5   704 – Lincoln Laboratory ETS, New Mexico MPS 49453
2001 10 12.26675 01 22 26.46 +05 07 23.2 17.3 R 699 – Lowell Observatory-LONEOS MPS 38129
2001 10 12.29012 01 22 25.10 +05 07 23.5   699 – Lowell Observatory-LONEOS MPS 38129
2001 10 12.31356 01 22 23.76 +05 07 23.2   699 – Lowell Observatory-LONEOS MPS 38129
2001 10 12.33708 01 22 22.42 +05 07 23.2   699 – Lowell Observatory-LONEOS MPS 38129
2001 10 13.24789 01 21 31.81 +05 07 31.6 18.3   704 – Lincoln Laboratory ETS, New Mexico MPS 38129
2001 10 13.26354 01 21 30.93 +05 07 31.8 18.2   704 – Lincoln Laboratory ETS, New Mexico MPS 38129
2001 10 13.27929 01 21 30.03 +05 07 31.6 18.4   704 – Lincoln Laboratory ETS, New Mexico MPS 38129
2001 10 13.29494 01 21 29.13 +05 07 32.9 19.1   704 – Lincoln Laboratory ETS, New Mexico MPS 38129
2001 10 14.19365 01 20 39.23 +05 07 40.4 17.6 R 699 – Lowell Observatory-LONEOS MPS 43836
2001 10 14.19839 01 20 38.96 +05 07 40.1   699 – Lowell Observatory-LONEOS MPS 43836
2001 10 14.20308 01 20 38.67 +05 07 40.5   699 – Lowell Observatory-LONEOS MPS 43836
2001 10 14.20776 01 20 38.38 +05 07 40.6   699 – Lowell Observatory-LONEOS MPS 43836
2001 10 16.25018 01 18 44.70 +05 08 05.6 18.0   704 – Lincoln Laboratory ETS, New Mexico MPS 38129
2001 10 16.26590 01 18 43.80 +05 08 06.2 18.3   704 – Lincoln Laboratory ETS, New Mexico MPS 38129
2001 10 16.28162 01 18 42.87 +05 08 06.5 18.2   704 – Lincoln Laboratory ETS, New Mexico MPS 38129
2001 10 16.29735 01 18 41.95 +05 08 06.6 18.5   704 – Lincoln Laboratory ETS, New Mexico MPS 38129
2001 10 16.31309 01 18 41.07 +05 08 07.1 18.4   704 – Lincoln Laboratory ETS, New Mexico MPS 38129
2001 10 18.28515 01 16 52.19 +05 08 38.7 17.4   644 – Palomar Mountain/NEAT MPS 40477
2001 10 18.30543 01 16 51.04 +05 08 39.0 17.3   644 – Palomar Mountain/NEAT MPS 40477
2001 10 18.32900 01 16 49.70 +05 08 39.4 17.3   644 – Palomar Mountain/NEAT MPS 40477
2001 10 19.95360 01 15 20.89 +05 09 12.0 17.7 V 049 – Uppsala-Kvistaberg MPS 39352
2001 10 19.96711 01 15 20.14 +05 09 12.6 17.8 V 049 – Uppsala-Kvistaberg MPS 39352
2001 10 19.98194 01 15 19.33 +05 09 12.8 17.7 V 049 – Uppsala-Kvistaberg MPS 39352
2001 10 20.26638 01 15 03.96 +05 09 21.5 17.1   704 – Lincoln Laboratory ETS, New Mexico MPS 40477
2001 10 20.28282 01 15 03.04 +05 09 22.5 17.2   704 – Lincoln Laboratory ETS, New Mexico MPS 40477
2001 10 20.29923 01 15 02.11 +05 09 22.0 17.4   704 – Lincoln Laboratory ETS, New Mexico MPS 40477
2001 10 20.31567 01 15 01.19 +05 09 22.4 17.1   704 – Lincoln Laboratory ETS, New Mexico MPS 40477
2001 10 20.33211 01 15 00.30 +05 09 22.5 17.7   704 – Lincoln Laboratory ETS, New Mexico MPS 40477
2001 10 22.20169 01 13 20.13 +05 10 15.1 17.9   704 – Lincoln Laboratory ETS, New Mexico MPS 40477
2001 10 22.23456 01 13 18.30 +05 10 16.0 18.0   704 – Lincoln Laboratory ETS, New Mexico MPS 40477
2001 10 22.25105 01 13 17.39 +05 10 16.5 18.1   704 – Lincoln Laboratory ETS, New Mexico MPS 40477
2001 10 23.26026 01 12 24.05 +05 10 49.3 18.1   704 – Lincoln Laboratory ETS, New Mexico MPS 40477
2001 10 23.27665 01 12 23.15 +05 10 50.2 18.3   704 – Lincoln Laboratory ETS, New Mexico MPS 40477
2001 10 23.29305 01 12 22.27 +05 10 50.5 18.4   704 – Lincoln Laboratory ETS, New Mexico MPS 40477
2001 10 23.30947 01 12 21.37 +05 10 51.2 17.9   704 – Lincoln Laboratory ETS, New Mexico MPS 40477
2001 10 23.32589 01 12 20.48 +05 10 51.9 17.9   704 – Lincoln Laboratory ETS, New Mexico MPS 40477
2001 10 24.24493 01 11 32.71 +05 11 25.2 17.6   704 – Lincoln Laboratory ETS, New Mexico MPS 40477
2001 10 24.26145 01 11 31.83 +05 11 26.1 18.0   704 – Lincoln Laboratory ETS, New Mexico MPS 40477
2001 10 24.27800 01 11 30.91 +05 11 26.7 17.9   704 – Lincoln Laboratory ETS, New Mexico MPS 40477
2001 10 24.29454 01 11 30.04 +05 11 27.4 17.9   704 – Lincoln Laboratory ETS, New Mexico MPS 40477
2001 10 24.31108 01 11 29.16 +05 11 28.1 18.1   704 – Lincoln Laboratory ETS, New Mexico MPS 40477
2001 11 05.12934 01 02 21.71 +05 24 19.4 17.8   704 – Lincoln Laboratory ETS, New Mexico MPS 40477
2001 11 05.14353 01 02 21.12 +05 24 20.6 18.4   704 – Lincoln Laboratory ETS, New Mexico MPS 40477
2001 11 05.20004 01 02 18.80 +05 24 26.6 18.2   704 – Lincoln Laboratory ETS, New Mexico MPS 40477
2001 11 09.22081 00 59 49.70 +05 31 36.0 18.2   704 – Lincoln Laboratory ETS, New Mexico MPS 40477
2001 11 09.23507 00 59 49.16 +05 31 37.6 18.5   704 – Lincoln Laboratory ETS, New Mexico MPS 40477
2001 11 09.24936 00 59 48.64 +05 31 39.0 18.5   704 – Lincoln Laboratory ETS, New Mexico MPS 40477
2001 11 09.26363 00 59 48.14 +05 31 41.0 18.8   704 – Lincoln Laboratory ETS, New Mexico MPS 40477
2001 11 09.27790 00 59 47.59 +05 31 43.1 18.7   704 – Lincoln Laboratory ETS, New Mexico MPS 40477
2001 11 18.21558 00 55 40.63 +05 53 35.4 18.5   704 – Lincoln Laboratory ETS, New Mexico MPS 43836
2001 11 18.23048 00 55 40.29 +05 53 37.7 19.4   704 – Lincoln Laboratory ETS, New Mexico MPS 43836
2001 11 18.24538 00 55 39.97 +05 53 40.7 19.3   704 – Lincoln Laboratory ETS, New Mexico MPS 43836
2001 11 18.26027 00 55 39.60 +05 53 43.0 18.9   704 – Lincoln Laboratory ETS, New Mexico MPS 43836
2001 11 18.27520 00 55 39.29 +05 53 46.1 18.8   704 – Lincoln Laboratory ETS, New Mexico MPS 43836
